AIB100 ZBTJ-ZBTJ

Flight info

Callsign AIB100
Flight time 0h 48m
Altitude 2000
Route LOCAL
Aircraft A359/H-SDE2E3GHIJ3J4J5LM1ORWXY/LB1D1

Departure

Time 2026-04-25 14:53
Airport Tianjin Binhai International Airport (ZBTJ)

Arrival

Time 2026-04-25 15:42
Airport Tianjin Binhai International Airport (ZBTJ)
Time Latitude Longitude Altitude Speed Heading
2026-04-25 14:36 39.12616 117.36140 26 ft 0 kts 265°
2026-04-25 14:46 39.12616 117.36144 52 ft 3 kts 265°
2026-04-25 14:46 39.12620 117.36176 27 ft 4 kts 257°
2026-04-25 14:46 39.12627 117.36209 30 ft 4 kts 245°
2026-04-25 14:46 39.12640 117.36236 30 ft 4 kts 222°
2026-04-25 14:47 39.12660 117.36249 29 ft 4 kts 163°
2026-04-25 14:47 39.12664 117.36248 28 ft 1 kts 154°
2026-04-25 14:47 39.12668 117.36245 30 ft 0 kts 154°
2026-04-25 14:49 39.12666 117.36247 30 ft 2 kts 154°
2026-04-25 14:49 39.12616 117.36278 30 ft 12 kts 154°
2026-04-25 14:49 39.12558 117.36359 28 ft 14 kts 89°
2026-04-25 14:50 39.12597 117.36496 29 ft 19 kts 64°
2026-04-25 14:50 39.12660 117.36666 28 ft 23 kts 64°
2026-04-25 14:50 39.12738 117.36858 30 ft 16 kts 36°
2026-04-25 14:50 39.12835 117.36831 29 ft 17 kts 335°
2026-04-25 14:51 39.12953 117.36758 31 ft 21 kts 335°
2026-04-25 14:51 39.13097 117.36671 31 ft 25 kts 335°
2026-04-25 14:51 39.13266 117.36566 27 ft 29 kts 335°
2026-04-25 14:51 39.13460 117.36447 29 ft 33 kts 334°
2026-04-25 14:52 39.13676 117.36315 26 ft 36 kts 334°
2026-04-25 14:52 39.13909 117.36172 31 ft 38 kts 335°
2026-04-25 14:52 39.14078 117.36133 31 ft 23 kts 46°
2026-04-25 14:52 39.14105 117.36191 30 ft 23 kts 67°
2026-04-25 14:53 39.13764 117.36493 27 ft 92 kts 155°
2026-04-25 14:53 39.12928 117.37005 47 ft 169 kts 154°
2026-04-25 14:53 39.11829 117.37711 901 ft 177 kts 158°
2026-04-25 14:53 39.10672 117.38441 1715 ft 201 kts 163°
2026-04-25 14:54 39.09273 117.39250 1860 ft 236 kts 164°
2026-04-25 14:54 39.07777 117.40303 1915 ft 256 kts 148°
2026-04-25 14:54 39.06655 117.42157 1929 ft 271 kts 122°
2026-04-25 14:54 39.06183 117.44556 1957 ft 284 kts 99°
2026-04-25 14:55 39.06383 117.47117 1974 ft 293 kts 80°
2026-04-25 14:55 39.06868 117.48751 1975 ft 297 kts 66°
2026-04-25 14:55 39.07967 117.50990 2011 ft 296 kts 44°
2026-04-25 14:55 39.10318 117.52512 2050 ft 277 kts
2026-04-25 14:56 39.11567 117.52479 2050 ft 268 kts 341°
2026-04-25 14:56 39.13324 117.51774 2091 ft 265 kts 332°
2026-04-25 14:56 39.14986 117.50772 2055 ft 263 kts 325°
2026-04-25 14:56 39.16613 117.49709 2036 ft 261 kts 324°
2026-04-25 14:57 39.18210 117.48622 1997 ft 258 kts 323°
2026-04-25 14:57 39.19771 117.47526 1996 ft 253 kts 322°
2026-04-25 14:57 39.21292 117.46443 2041 ft 248 kts 323°
2026-04-25 14:57 39.22803 117.45400 2036 ft 245 kts 324°
2026-04-25 14:58 39.24168 117.44200 2009 ft 227 kts 305°
2026-04-25 14:58 39.24875 117.42545 1991 ft 201 kts 275°
2026-04-25 14:58 39.24794 117.40879 2012 ft 177 kts 245°
2026-04-25 14:58 39.24243 117.39572 2038 ft 156 kts 237°
2026-04-25 14:59 39.23707 117.38420 1933 ft 144 kts 236°
2026-04-25 14:59 39.23200 117.37360 1829 ft 134 kts 235°
2026-04-25 14:59 39.22713 117.36351 1711 ft 129 kts 235°
2026-04-25 14:59 39.22257 117.35406 1618 ft 118 kts 234°
2026-04-25 15:00 39.21835 117.34525 1538 ft 114 kts 234°
2026-04-25 15:00 39.21428 117.33680 1505 ft 109 kts 236°
2026-04-25 15:00 39.20763 117.33266 1366 ft 120 kts 181°
2026-04-25 15:00 39.19925 117.33571 1216 ft 128 kts 172°
2026-04-25 15:01 39.19083 117.33855 1050 ft 122 kts 176°
2026-04-25 15:01 39.18241 117.34049 928 ft 127 kts 179°
2026-04-25 15:01 39.17357 117.34323 676 ft 132 kts 160°
2026-04-25 15:01 39.16534 117.34810 516 ft 130 kts 159°
2026-04-25 15:02 39.15686 117.35297 378 ft 140 kts 155°
2026-04-25 15:02 39.14817 117.35872 205 ft 140 kts 161°
2026-04-25 15:02 39.13933 117.36391 57 ft 139 kts 154°
2026-04-25 15:02 39.13097 117.36897 37 ft 127 kts 148°
2026-04-25 15:03 39.12084 117.37561 358 ft 201 kts 155°
2026-04-25 15:03 39.10828 117.38334 737 ft 193 kts 157°
2026-04-25 15:03 39.09622 117.39082 1099 ft 190 kts 161°
2026-04-25 15:03 39.08430 117.39832 1835 ft 195 kts 163°
2026-04-25 15:04 39.07228 117.40605 1993 ft 200 kts 161°
2026-04-25 15:04 39.06243 117.42002 2043 ft 228 kts 126°
2026-04-25 15:04 39.05893 117.44124 1988 ft 259 kts 95°
2026-04-25 15:04 39.06300 117.46431 1990 ft 272 kts 72°
2026-04-25 15:05 39.07111 117.48662 2013 ft 279 kts 66°
2026-04-25 15:05 39.08001 117.50918 2174 ft 290 kts 64°
2026-04-25 15:05 39.09027 117.53211 2960 ft 309 kts 53°
2026-04-25 15:06 39.12408 117.56196 3063 ft 288 kts 10°
2026-04-25 15:06 39.14325 117.56457 3226 ft 268 kts 349°
2026-04-25 15:06 39.16114 117.55949 3122 ft 262 kts 330°
2026-04-25 15:06 39.17751 117.54905 3030 ft 265 kts 324°
2026-04-25 15:07 39.19383 117.53784 3010 ft 264 kts 323°
2026-04-25 15:07 39.20983 117.52643 3013 ft 261 kts 322°
2026-04-25 15:07 39.22546 117.51483 3027 ft 257 kts 322°
2026-04-25 15:07 39.24067 117.50309 3063 ft 253 kts 321°
2026-04-25 15:08 39.25584 117.49131 3008 ft 258 kts 323°
2026-04-25 15:08 39.27168 117.47991 2993 ft 262 kts 323°
2026-04-25 15:08 39.28766 117.46889 3016 ft 260 kts 324°
2026-04-25 15:08 39.30361 117.45799 2990 ft 259 kts 324°
2026-04-25 15:09 39.31938 117.44687 2988 ft 258 kts 323°
2026-04-25 15:09 39.33492 117.43558 3016 ft 255 kts 322°
2026-04-25 15:09 39.35454 117.40313 3054 ft 221 kts 276°
2026-04-25 15:10 39.35436 117.38388 3027 ft 212 kts 251°
2026-04-25 15:10 39.34704 117.36829 3009 ft 199 kts 224°
2026-04-25 15:10 39.32988 117.34283 2921 ft 180 kts 231°
2026-04-25 15:11 39.32210 117.33084 2968 ft 168 kts 230°
2026-04-25 15:11 39.31453 117.31968 2995 ft 162 kts 229°
2026-04-25 15:11 39.30690 117.30905 2991 ft 161 kts 227°
2026-04-25 15:12 39.29048 117.28981 2968 ft 161 kts 209°
2026-04-25 15:12 39.27919 117.28837 2936 ft 173 kts 181°
2026-04-25 15:12 39.26736 117.29213 2691 ft 175 kts 174°
2026-04-25 15:12 39.26341 117.29357 2606 ft 174 kts 175°
2026-04-25 15:13 39.24479 117.30073 2233 ft 163 kts 170°
2026-04-25 15:13 39.22556 117.31177 1786 ft 141 kts 169°
2026-04-25 15:13 39.21709 117.31697 1628 ft 130 kts 169°
2026-04-25 15:14 39.20908 117.32160 1433 ft 122 kts 170°
2026-04-25 15:14 39.20153 117.32610 1279 ft 119 kts 164°
2026-04-25 15:14 39.19413 117.33063 1099 ft 119 kts 168°
2026-04-25 15:14 39.18630 117.33503 1014 ft 127 kts 164°
2026-04-25 15:15 39.17789 117.34014 915 ft 140 kts 161°
2026-04-25 15:15 39.16892 117.34563 689 ft 143 kts 159°
2026-04-25 15:15 39.16031 117.35105 497 ft 135 kts 158°
2026-04-25 15:15 39.15198 117.35611 270 ft 126 kts 160°
2026-04-25 15:16 39.14433 117.36094 133 ft 124 kts 157°
2026-04-25 15:16 39.13608 117.36592 30 ft 132 kts 154°
2026-04-25 15:16 39.11637 117.37823 235 ft 229 kts 155°
2026-04-25 15:17 39.08639 117.39771 2616 ft 248 kts 161°
2026-04-25 15:17 39.07075 117.40814 2805 ft 258 kts 154°
2026-04-25 15:17 39.05867 117.42602 2974 ft 277 kts 125°
2026-04-25 15:18 39.05313 117.45023 2984 ft 289 kts 100°
2026-04-25 15:18 39.06435 117.50041 3002 ft 300 kts 61°
2026-04-25 15:18 39.07433 117.52355 2990 ft 299 kts 63°
2026-04-25 15:19 39.08554 117.54640 3020 ft 302 kts 52°
2026-04-25 15:19 39.09029 117.55278 3025 ft 306 kts 43°
2026-04-25 15:19 39.12078 117.57212 3046 ft 288 kts
2026-04-25 15:19 39.14031 117.57027 3063 ft 276 kts 337°
2026-04-25 15:20 39.15769 117.56092 3021 ft 269 kts 324°
2026-04-25 15:20 39.17409 117.54943 3014 ft 268 kts 323°
2026-04-25 15:20 39.19020 117.53744 3023 ft 267 kts 322°
2026-04-25 15:20 39.20607 117.52526 2895 ft 262 kts 321°
2026-04-25 15:21 39.22119 117.51356 2812 ft 246 kts 321°
2026-04-25 15:21 39.23556 117.50277 2673 ft 234 kts 321°
2026-04-25 15:21 39.24952 117.49281 2505 ft 224 kts 322°
2026-04-25 15:21 39.26306 117.48365 2379 ft 216 kts 323°
2026-04-25 15:22 39.27402 117.47220 2199 ft 192 kts 290°
2026-04-25 15:22 39.27591 117.45659 2118 ft 174 kts 250°
2026-04-25 15:22 39.27121 117.44221 2008 ft 175 kts 240°
2026-04-25 15:22 39.26576 117.42806 1989 ft 176 kts 242°
2026-04-25 15:23 39.26030 117.41390 1994 ft 176 kts 240°
2026-04-25 15:23 39.25452 117.40004 2004 ft 175 kts 239°
2026-04-25 15:23 39.24851 117.38631 2053 ft 175 kts 239°
2026-04-25 15:23 39.24246 117.37294 1980 ft 169 kts 237°
2026-04-25 15:24 39.23674 117.36040 1892 ft 155 kts 237°
2026-04-25 15:24 39.23154 117.34903 1832 ft 141 kts 237°
2026-04-25 15:24 39.22675 117.33851 1718 ft 131 kts 236°
2026-04-25 15:24 39.22380 117.33208 1701 ft 121 kts 236°
2026-04-25 15:25 39.21811 117.32534 1627 ft 107 kts 205°
2026-04-25 15:25 39.20824 117.32684 1392 ft 109 kts 180°
2026-04-25 15:25 39.20095 117.32930 1269 ft 110 kts 177°
2026-04-25 15:25 39.19353 117.33246 1196 ft 114 kts 170°
2026-04-25 15:26 39.18594 117.33640 1059 ft 119 kts 164°
2026-04-25 15:26 39.17837 117.34059 865 ft 117 kts 165°
2026-04-25 15:26 39.17075 117.34482 719 ft 122 kts 161°
2026-04-25 15:26 39.16308 117.34953 538 ft 123 kts 159°
2026-04-25 15:27 39.15531 117.35432 307 ft 121 kts 156°
2026-04-25 15:27 39.14761 117.35894 172 ft 125 kts 157°
2026-04-25 15:27 39.13182 117.36862 55 ft 141 kts 158°
2026-04-25 15:28 39.11995 117.37546 266 ft 232 kts 156°
2026-04-25 15:28 39.10293 117.38633 712 ft 286 kts 154°
2026-04-25 15:28 39.08731 117.39747 1736 ft 233 kts 158°
2026-04-25 15:28 39.07284 117.40827 1935 ft 246 kts 159°
2026-04-25 15:29 39.05985 117.42348 1949 ft 265 kts 133°
2026-04-25 15:29 39.05273 117.44596 1943 ft 281 kts 107°
2026-04-25 15:29 39.05283 117.47143 1946 ft 291 kts 83°
2026-04-25 15:29 39.05983 117.49600 1983 ft 294 kts 66°
2026-04-25 15:30 39.06931 117.51934 1987 ft 295 kts 63°
2026-04-25 15:30 39.07921 117.54246 1970 ft 295 kts 58°
2026-04-25 15:30 39.09404 117.56044 2012 ft 294 kts 28°
2026-04-25 15:30 39.11297 117.56862 2014 ft 285 kts
2026-04-25 15:31 39.13217 117.56623 2018 ft 273 kts 335°
2026-04-25 15:31 39.14917 117.55623 2031 ft 267 kts 324°
2026-04-25 15:31 39.16552 117.54498 2022 ft 266 kts 323°
2026-04-25 15:31 39.18169 117.53342 2041 ft 266 kts 323°
2026-04-25 15:32 39.19772 117.52152 2043 ft 264 kts 322°
2026-04-25 15:32 39.21351 117.50946 2015 ft 264 kts 320°
2026-04-25 15:32 39.22926 117.49713 2002 ft 264 kts 320°
2026-04-25 15:33 39.26029 117.47255 2002 ft 266 kts 322°
2026-04-25 15:33 39.27662 117.46122 1960 ft 267 kts 324°
2026-04-25 15:33 39.29281 117.44968 1989 ft 264 kts 323°
2026-04-25 15:33 39.30552 117.43389 2040 ft 246 kts 294°
2026-04-25 15:34 39.31059 117.41449 2047 ft 216 kts 268°
2026-04-25 15:34 39.30802 117.39682 2035 ft 190 kts 241°
2026-04-25 15:34 39.30222 117.38235 2024 ft 175 kts 240°
2026-04-25 15:34 39.30037 117.37769 1996 ft 171 kts 240°
2026-04-25 15:35 39.28743 117.34531 1944 ft 133 kts 239°
2026-04-25 15:35 39.28338 117.33518 1967 ft 119 kts 239°
2026-04-25 15:35 39.27996 117.32646 2035 ft 102 kts 239°
2026-04-25 15:36 39.27388 117.31070 2009 ft 96 kts 237°
2026-04-25 15:36 39.27065 117.30303 2036 ft 97 kts 238°
2026-04-25 15:36 39.26674 117.29607 1963 ft 96 kts 217°
2026-04-25 15:37 39.25971 117.29489 1959 ft 111 kts 184°
2026-04-25 15:37 39.25203 117.29655 1935 ft 113 kts 184°
2026-04-25 15:37 39.24440 117.30043 1786 ft 119 kts 171°
2026-04-25 15:37 39.23699 117.30479 1763 ft 116 kts 172°
2026-04-25 15:38 39.22954 117.30914 1713 ft 118 kts 170°
2026-04-25 15:38 39.22217 117.31356 1762 ft 117 kts 171°
2026-04-25 15:38 39.21461 117.31809 1663 ft 120 kts 171°
2026-04-25 15:38 39.20714 117.32279 1450 ft 117 kts 169°
2026-04-25 15:39 39.19980 117.32711 1299 ft 116 kts 169°
2026-04-25 15:39 39.19236 117.33150 1201 ft 119 kts 166°
2026-04-25 15:39 39.18475 117.33635 1064 ft 123 kts 164°
2026-04-25 15:39 39.17714 117.34100 869 ft 121 kts 164°
2026-04-25 15:40 39.16933 117.34558 674 ft 125 kts 159°
2026-04-25 15:40 39.16668 117.34721 624 ft 126 kts 159°
2026-04-25 15:40 39.15360 117.35520 323 ft 125 kts 158°
2026-04-25 15:40 39.14552 117.36015 169 ft 131 kts 156°
2026-04-25 15:41 39.13736 117.36523 34 ft 128 kts 158°
2026-04-25 15:41 39.13003 117.36961 26 ft 101 kts 155°
2026-04-25 15:41 39.12445 117.37302 28 ft 78 kts 155°
2026-04-25 15:41 39.12003 117.37574 25 ft 64 kts 154°
2026-04-25 15:42 39.11674 117.37776 25 ft 41 kts 154°
2026-04-25 15:42 39.11581 117.37870 26 ft 22 kts 100°
2026-04-25 15:42 39.11603 117.38143 29 ft 24 kts 96°
2026-04-25 15:42 39.11590 117.38373 25 ft 26 kts 94°
2026-04-25 15:43 39.11555 117.38483 27 ft 21 kts 140°
2026-04-25 15:43 39.11363 117.38610 27 ft 26 kts 154°
2026-04-25 15:43 39.11246 117.38680 26 ft 28 kts 155°
2026-04-25 15:43 39.11198 117.38798 27 ft 14 kts 69°
2026-04-25 15:44 39.11193 117.38922 29 ft 10 kts 158°
2026-04-25 15:44 39.11152 117.38911 29 ft 10 kts 204°
2026-04-25 15:44 39.11084 117.38916 28 ft 10 kts 136°
2026-04-25 15:44 39.11091 117.38972 29 ft 4 kts 40°
2026-04-25 15:45 39.11139 117.38970 30 ft 12 kts 338°
2026-04-25 15:45 39.11149 117.38964 29 ft 0 kts 335°
2026-04-25 15:52 39.11177 117.38947 30 ft 10 kts 335°
2026-04-25 15:52 39.11211 117.38860 28 ft 15 kts 261°
2026-04-25 15:53 39.11211 117.38719 30 ft 17 kts 317°
2026-04-25 15:53 39.11334 117.38629 29 ft 26 kts 334°
2026-04-25 15:53 39.11501 117.38528 29 ft 28 kts 334°
2026-04-25 15:53 39.11592 117.38333 25 ft 28 kts 275°
2026-04-25 15:54 39.11599 117.38220 27 ft 0 kts 274°
2026-04-25 15:54 39.11602 117.38176 30 ft 11 kts 274°
2026-04-25 15:54 39.11609 117.38050 27 ft 16 kts 271°
2026-04-25 15:54 39.11601 117.37991 29 ft 0 kts 254°
2026-04-25 15:56 39.11601 117.37989 28 ft 1 kts 254°
2026-04-25 15:56 39.11601 117.37988 28 ft 1 kts 254°
2026-04-25 15:56 39.11562 117.37869 27 ft 31 kts 245°
2026-04-25 15:57 39.11532 117.37643 30 ft 24 kts 319°
2026-04-25 15:57 39.11710 117.37519 30 ft 33 kts 334°
2026-04-25 15:57 39.11931 117.37385 28 ft 38 kts 335°
2026-04-25 15:57 39.12177 117.37233 30 ft 41 kts 334°
2026-04-25 15:58 39.12442 117.37071 30 ft 44 kts 334°
2026-04-25 15:58 39.12725 117.36898 28 ft 46 kts 335°
2026-04-25 15:58 39.13021 117.36717 31 ft 48 kts 335°
2026-04-25 15:58 39.13332 117.36527 27 ft 50 kts 334°
2026-04-25 15:59 39.13655 117.36329 27 ft 52 kts 334°
2026-04-25 15:59 39.13956 117.36145 31 ft 32 kts 335°
2026-04-25 15:59 39.14095 117.36165 29 ft 22 kts 58°
2026-04-25 15:59 39.14035 117.36326 30 ft 38 kts 152°
2026-04-25 16:00 39.13390 117.36720 31 ft 165 kts 153°
2026-04-25 16:00 39.13006 117.36962 154 ft 194 kts 155°
2026-04-25 16:00 39.10611 117.38340 2007 ft 245 kts 164°
2026-04-25 16:00 39.09230 117.39645 2067 ft 259 kts 137°
2026-04-25 16:01 39.08436 117.41825 2055 ft 281 kts 109°
2026-04-25 16:01 39.08429 117.44375 2026 ft 292 kts 83°
2026-04-25 16:01 39.09224 117.46791 2025 ft 296 kts 56°
2026-04-25 16:01 39.10687 117.48614 1978 ft 294 kts 31°
2026-04-25 16:02 39.12551 117.49599 1980 ft 287 kts
2026-04-25 16:02 39.14495 117.49596 1986 ft 276 kts 341°
2026-04-25 16:02 39.16226 117.48692 2018 ft 268 kts 325°
2026-04-25 16:02 39.17861 117.47565 2017 ft 266 kts 324°
2026-04-25 16:03 39.19481 117.46431 1982 ft 266 kts 323°
2026-04-25 16:03 39.21095 117.45317 1973 ft 268 kts 323°
2026-04-25 16:03 39.22758 117.44162 2003 ft 268 kts 323°
2026-04-25 16:03 39.24376 117.43026 2007 ft 268 kts 323°
2026-04-25 16:04 39.26015 117.41855 1990 ft 258 kts 323°
2026-04-25 16:04 39.27146 117.40370 1996 ft 218 kts 290°
2026-04-25 16:04 39.27412 117.38643 2014 ft 183 kts 257°
2026-04-25 16:04 39.26899 117.37279 2041 ft 161 kts 230°
2026-04-25 16:05 39.26183 117.36196 2015 ft 154 kts 228°
2026-04-25 16:05 39.25456 117.35236 2044 ft 147 kts 225°
2026-04-25 16:05 39.24046 117.33586 1981 ft 132 kts 223°
2026-04-25 16:06 39.23349 117.32819 1886 ft 131 kts 222°
2026-04-25 16:06 39.22645 117.32061 1816 ft 131 kts 222°
2026-04-25 16:06 39.21807 117.31596 1722 ft 140 kts 193°
2026-04-25 16:06 39.20831 117.31995 1585 ft 158 kts 156°
2026-04-25 16:07 39.19898 117.32717 1371 ft 153 kts 165°
2026-04-25 16:07 39.19577 117.32919 1304 ft 151 kts 165°
2026-04-25 16:07 39.18052 117.33852 942 ft 140 kts 160°
2026-04-25 16:07 39.17205 117.34392 728 ft 132 kts 162°
2026-04-25 16:08 39.16398 117.34858 534 ft 124 kts 157°
2026-04-25 16:08 39.15629 117.35368 363 ft 125 kts 160°
2026-04-25 16:08 39.14811 117.35870 226 ft 132 kts 158°
2026-04-25 16:08 39.13977 117.36359 72 ft 130 kts 155°
2026-04-25 16:09 39.13188 117.36857 31 ft 119 kts 161°
2026-04-25 16:09 39.12519 117.37258 26 ft 90 kts 155°
2026-04-25 16:09 39.12037 117.37554 26 ft 65 kts 154°
2026-04-25 16:09 39.11744 117.37733 25 ft 37 kts 154°
2026-04-25 16:10 39.11584 117.37859 26 ft 22 kts 109°
2026-04-25 16:10 39.11606 117.38061 28 ft 25 kts 91°
2026-04-25 16:10 39.11594 117.38303 25 ft 29 kts 96°
2026-04-25 16:10 39.11504 117.38523 28 ft 31 kts 153°
2026-04-25 16:11 39.11299 117.38649 28 ft 34 kts 156°
2026-04-25 16:11 39.11182 117.38747 16 ft 5 kts 94°
2026-04-25 16:11 39.11199 117.38807 26 ft 12 kts 64°
2026-04-25 16:11 39.11262 117.38868 27 ft 13 kts 355°
2026-04-25 16:12 39.11356 117.38818 29 ft 15 kts 330°
2026-04-25 16:12 39.11397 117.38791 28 ft 0 kts 335°